Salzburg, Austria

5:44 AM CET on January 18, 2017 (GMT +0100)
Salzburg

Weather History for 11150 - April, 2013

Change the Weather History Date:

Monday, April 29, 2013

  Actual Average Record
Temperature  
Mean Temperature 48 °F -  
Max Temperature 54 °F 65 °F - ()
Min Temperature 41 °F 46 °F - ()
Degree Days  
Heating Degree Days 18    
Moisture  
Dew Point 46 °F    
Average Humidity 87    
Maximum Humidity 100    
Minimum Humidity 71    
Precipitation  
Precipitation 0.00 in 0.17 in - ()
Sea Level Pressure  
Sea Level Pressure 30.06 in    
Wind  
Wind Speed 2 mph ()    
Max Wind Speed 7 mph    
Max Gust Speed -    
Visibility 6.1 miles    
Events      
T = Trace of Precipitation, MM = Missing Value Source: Averaged Metar Reports

Daily Weather History Graph

Daily Weather History Graph

Search for Another Location

Airport or City:

Trip Planner

Search our weather history database for the weather conditions in past years. The results will help you decide how hot, cold, wet, or windy it might be!

Date:

Astronomy

Apr. 29, 2013 Rise Set
Actual Time 5:53 AM CEST 8:17 PM CEST
Civil Twilight 5:19 AM CEST 8:52 PM CEST
Nautical Twilight 4:36 AM CEST 9:35 PM CEST
Astronomical Twilight 3:47 AM CEST 10:24 PM CEST
Moon No Moon Rise 8:47 AM CEST (4/29)
Length of Visible Light 15h 32m
Length of Day
14h 24m
Waning Gibbous, 82% of the Moon is Illuminated
Apr 29
Waning Gibbous
May 2
Last Quarter
May 10
New
May 18
First Quarter
May 25
Full

Hourly Weather History & Observations

Time (CEST) Temp. Windchill Dew Point Humidity Pressure Visibility Wind Dir Wind Speed Gust Speed Precip Events Conditions
12:20 AM 44.6 °F - 42.8 °F 93% 29.95 in 6.2 mi Variable 2.3 mph - N/A   Partly Cloudy
12:50 AM 44.6 °F - 42.8 °F 93% 29.95 in 6.2 mi SW 2.3 mph - N/A   Partly Cloudy
1:20 AM 44.6 °F - 42.8 °F 93% 29.95 in 6.2 mi Variable 1.2 mph - N/A   Partly Cloudy
1:50 AM 42.8 °F - 42.8 °F 100% 29.95 in 6.2 mi Variable 2.3 mph - N/A   Unknown
2:00 AM 43 °F - 42 °F 94% 30.00 in 8 mi 2.2 mph - -  
2:20 AM 44.6 °F - 42.8 °F 93% 29.98 in 6.2 mi Variable 1.2 mph - N/A   Partly Cloudy
2:50 AM 41.0 °F - 41.0 °F 100% 29.95 in 6.2 mi Variable 2.3 mph - N/A   Partly Cloudy
3:20 AM 41.0 °F - 41.0 °F 100% 29.95 in 6.2 mi Variable 2.3 mph - N/A   Partly Cloudy
3:50 AM 42.8 °F - 42.8 °F 100% 29.98 in - Variable 1.2 mph - N/A   Clear
4:20 AM 42.8 °F - 42.8 °F 100% 29.98 in - Variable 1.2 mph - N/A   Clear
4:50 AM 42.8 °F - 42.8 °F 100% 29.98 in 6.2 mi North 2.3 mph - N/A   Mostly Cloudy
5:00 AM 43 °F - 43 °F 98% 30.01 in 8 mi North 2.2 mph - -   Scattered Clouds
5:20 AM 42.8 °F - 42.8 °F 100% 29.98 in 6.2 mi Variable 2.3 mph - N/A   Mostly Cloudy
5:50 AM 44.6 °F 43.1 °F 42.8 °F 93% 29.98 in 5.6 mi NNE 3.5 mph - N/A   Mostly Cloudy
6:20 AM 44.6 °F - 44.6 °F 100% 30.01 in 5.6 mi Variable 2.3 mph - N/A   Mostly Cloudy
6:50 AM 46.4 °F - 46.4 °F 100% 30.01 in 5.6 mi Variable 2.3 mph - N/A   Mostly Cloudy
7:20 AM 48.2 °F - 46.4 °F 93% 30.01 in 5.6 mi Variable 1.2 mph - N/A   Mostly Cloudy
7:50 AM 48.2 °F - 46.4 °F 93% 30.01 in 5.6 mi Variable 1.2 mph - N/A   Mostly Cloudy
8:00 AM 48 °F - 47 °F 94% 30.03 in 6 mi 2.2 mph - -   Overcast
8:20 AM 48.2 °F - 46.4 °F 93% 30.01 in 5.6 mi Variable 1.2 mph - N/A   Mostly Cloudy
8:50 AM 50.0 °F - 46.4 °F 87% 30.01 in 5.6 mi Variable 1.2 mph - N/A   Mostly Cloudy
9:20 AM 50.0 °F - 46.4 °F 87% 30.04 in 5.6 mi Variable 1.2 mph - N/A   Mostly Cloudy
9:50 AM 50.0 °F - 46.4 °F 87% 30.04 in 5.6 mi Variable 1.2 mph - N/A   Mostly Cloudy
10:20 AM 51.8 °F - 46.4 °F 82% 30.04 in 5.6 mi Variable 1.2 mph - N/A   Mostly Cloudy
10:50 AM 51.8 °F - 46.4 °F 82% 30.04 in 5.6 mi Variable 1.2 mph - N/A   Mostly Cloudy
11:00 AM 52 °F - 46 °F 75% 30.06 in 6 mi 2.2 mph - -   Scattered Clouds
11:20 AM 51.8 °F - 46.4 °F 82% 30.06 in 5.6 mi Variable 1.2 mph - N/A   Mostly Cloudy
11:50 AM 53.6 °F - 46.4 °F 77% 30.06 in 6.2 mi Variable 2.3 mph - N/A   Mostly Cloudy
12:20 PM 53.6 °F - 48.2 °F 82% 30.06 in 6.2 mi NNE 4.6 mph - N/A   Mostly Cloudy
12:50 PM 53.6 °F - 48.2 °F 82% 30.06 in 6.2 mi North 3.5 mph - N/A   Mostly Cloudy
1:20 PM 53.6 °F - 46.4 °F 77% 30.06 in 6.2 mi NNW 5.8 mph - N/A   Mostly Cloudy
1:50 PM 53.6 °F - 46.4 °F 77% 30.06 in 6.2 mi NNW 4.6 mph - N/A   Mostly Cloudy
2:00 PM 53 °F - 47 °F 73% 30.09 in 6 mi NNW 4.5 mph - -   Overcast
2:20 PM 53.6 °F - 48.2 °F 82% 30.09 in 6.2 mi NNW 3.5 mph - N/A   Mostly Cloudy
2:50 PM 53.6 °F - 48.2 °F 82% 30.09 in 6.2 mi NW 5.8 mph - N/A   Mostly Cloudy
3:20 PM 53.6 °F - 46.4 °F 77% 30.09 in 6.2 mi Variable 2.3 mph - N/A   Mostly Cloudy
3:50 PM 53.6 °F - 46.4 °F 77% 30.09 in 6.2 mi NNW 4.6 mph - N/A   Mostly Cloudy
4:20 PM 53.6 °F - 46.4 °F 77% 30.09 in 6.2 mi NW 5.8 mph - N/A   Mostly Cloudy
4:50 PM 53.6 °F - 48.2 °F 82% 30.12 in 6.2 mi NNW 5.8 mph - N/A   Mostly Cloudy
5:00 PM 54 °F - 48 °F 73% 30.12 in 7 mi NNW 6.7 mph - -   Overcast
5:20 PM 53.6 °F - 48.2 °F 82% 30.12 in 6.2 mi WNW 4.6 mph - N/A   Mostly Cloudy
5:50 PM 53.6 °F - 48.2 °F 82% 30.12 in 6.2 mi Variable 1.2 mph - N/A   Mostly Cloudy
6:20 PM 55.4 °F - 46.4 °F 72% 30.12 in 6.2 mi Variable 1.2 mph - N/A   Mostly Cloudy
6:50 PM 53.6 °F - 46.4 °F 77% 30.12 in 6.2 mi Variable 1.2 mph - N/A   Mostly Cloudy
7:20 PM 53.6 °F - 48.2 °F 82% 30.12 in 6.2 mi WNW 4.6 mph - N/A   Mostly Cloudy
7:50 PM 53.6 °F - 48.2 °F 82% 30.12 in 6.2 mi Variable 2.3 mph - N/A   Mostly Cloudy
8:00 PM 54 °F - 47 °F 71% 30.14 in 7 mi 2.2 mph - -   Partly Cloudy
8:20 PM 53.6 °F - 48.2 °F 82% 30.12 in 6.2 mi Variable 1.2 mph - N/A   Mostly Cloudy
8:50 PM 53.6 °F - 48.2 °F 82% 30.15 in 6.2 mi Variable 1.2 mph - N/A   Mostly Cloudy
9:20 PM 53.6 °F - 48.2 °F 82% 30.15 in 6.2 mi SSE 3.5 mph - N/A   Mostly Cloudy
9:50 PM 51.8 °F - 48.2 °F 88% 30.15 in 6.2 mi SE 2.3 mph - N/A   Mostly Cloudy
10:20 PM 50.0 °F - 48.2 °F 94% 30.15 in 6.2 mi Variable 2.3 mph - N/A   Mostly Cloudy
10:50 PM 50.0 °F - 48.2 °F 94% 30.15 in 6.2 mi Variable 1.2 mph - N/A   Mostly Cloudy
11:00 PM 50 °F - 48 °F 91% 30.18 in 6 mi 2.2 mph - -   Scattered Clouds
11:20 PM 50.0 °F - 48.2 °F 94% 30.15 in 5.0 mi Variable 1.2 mph - N/A   Mostly Cloudy
11:50 PM 48.2 °F - 48.2 °F 100% 30.15 in 4.3 mi Variable 1.2 mph - N/A   Overcast